Zurück zum Katalog

SICH 1

AktivWissenschaftPO
NORAD 23657·PAYLOAD·🇺🇦 Ukraine

Gestartet Aug 31, 1995 von Plesetsk Cosmodrome

Loading…

Nächste Überflüge (nächste 24 Stunden)

TLE

AktuellSource: Space-Track

Epoche: Sep 14, 2026, 14:43 UTC

1 23657U 95046A   26257.61362061  .00001025  00000-0  91280-4 0  9996
2 23657  82.5246 316.7752 0019028  28.0774 332.1469 14.94895938679348

Verfolge SICH 1 in Echtzeit mit AllMySat

Download on the App Store